When you browse on this site, cookies collect data to enhance your experience and personalize the content and advertising you see.
Visit our Privacy Policy to learn more. By continuing to use the site, you agree to this use of cookies and data.
  • In Hungary
  • List of Countries
  • For 7 days
  • Water Temperature
  • Satellite Maps
  • Weather Map
  • News
  • Weather Widgets
  • user-avatar
    Login

    Hourly Weather Peredil'nytsya

    Today, 14 December, Friday

    Time Temperature Precipitation Wind Pressure Humidity
    00:00 -2°C° 0 mm 2 mps 743 mmHg 91%
    01:00 -2°C° 0 mm 2 mps 743 mmHg 91%
    02:00 -2°C° 0 mm 2 mps 743 mmHg 91%
    03:00 -3°C° 0.1 mm 2 mps 744 mmHg 91%
    04:00 -3°C° 0.1 mm 2 mps 744 mmHg 91%
    05:00 -3°C° 0.1 mm 2 mps 744 mmHg 91%
    06:00 -3°C° 0.1 mm 2 mps 744 mmHg 92%
    07:00 -3°C° 0.1 mm 2 mps 744 mmHg 92%
    08:00 -3°C° 0.1 mm 2 mps 744 mmHg 92%
    09:00 -2°C° 0 mm 2 mps 744 mmHg 91%
    10:00 -2°C° 0 mm 2 mps 744 mmHg 89%
    11:00 -2°C° 0 mm 2 mps 745 mmHg 88%
    12:00 -1°C° 0 mm 2 mps 745 mmHg 87%
    13:00 -1°C° 0 mm 2 mps 745 mmHg 86%
    14:00 +1°C° 0 mm 1 mps 745 mmHg 86%
    15:00 -1°C° 0 mm 2 mps 745 mmHg 87%
    16:00 -1°C° 0 mm 2 mps 745 mmHg 89%
    17:00 -2°C° 0 mm 2 mps 746 mmHg 91%
    18:00 -2°C° 0 mm 2 mps 746 mmHg 92%
    19:00 -2°C° 0 mm 2 mps 746 mmHg 92%
    20:00 -2°C° 0 mm 2 mps 746 mmHg 93%
    21:00 -2°C° 0 mm 2 mps 746 mmHg 92%
    22:00 -2°C° 0 mm 2 mps 746 mmHg 92%
    23:00 -2°C° 0 mm 2 mps 746 mmHg 91%

    Tomorrow, 15 December, Saturday

    Time Temperature Precipitation Wind Pressure Humidity
    00:00 -2°C° 0 mm 3 mps 746 mmHg 91%
    01:00 -4°C° 0 mm 3 mps 747 mmHg 91%
    02:00 -4°C° 0 mm 3 mps 747 mmHg 91%
    03:00 -4°C° 0 mm 3 mps 746 mmHg 90%
    04:00 -4°C° 0 mm 3 mps 746 mmHg 90%
    05:00 -5°C° 0 mm 4 mps 746 mmHg 89%
    06:00 -5°C° 0 mm 4 mps 746 mmHg 89%
    07:00 -5°C° 0 mm 4 mps 747 mmHg 90%
    08:00 -7°C° 0 mm 4 mps 747 mmHg 90%
    09:00 -5°C° 0 mm 4 mps 747 mmHg 88%
    10:00 -6°C° 0 mm 5 mps 747 mmHg 86%
    11:00 -5°C° 0 mm 5 mps 747 mmHg 83%
    12:00 -5°C° 0 mm 5 mps 747 mmHg 81%
    13:00 -4°C° 0 mm 6 mps 747 mmHg 79%
    14:00 -4°C° 0 mm 6 mps 746 mmHg 77%
    15:00 -4°C° 0 mm 6 mps 746 mmHg 78%
    16:00 -4°C° 0 mm 6 mps 746 mmHg 79%
    17:00 -5°C° 0 mm 5 mps 746 mmHg 80%
    18:00 -5°C° 0.1 mm 6 mps 746 mmHg 82%
    19:00 -5°C° 0.1 mm 6 mps 746 mmHg 84%
    20:00 -5°C° 0.1 mm 6 mps 746 mmHg 86%
    21:00 -5°C° 0.3 mm 6 mps 746 mmHg 86%
    22:00 -5°C° 0.3 mm 6 mps 746 mmHg 87%
    23:00 -5°C° 0.3 mm 6 mps 745 mmHg 87%

    Day after tomorrow, 16 December, Sunday

    Time Temperature Precipitation Wind Pressure Humidity
    00:00 -5°C° 0.1 mm 6 mps 745 mmHg 87%
    01:00 -5°C° 0.1 mm 6 mps 745 mmHg 87%
    02:00 -5°C° 0.1 mm 5 mps 745 mmHg 87%
    03:00 -5°C° 0.1 mm 5 mps 744 mmHg 87%
    04:00 -5°C° 0.1 mm 5 mps 744 mmHg 87%
    05:00 -4°C° 0.1 mm 4 mps 744 mmHg 88%
    06:00 -4°C° 0.1 mm 4 mps 744 mmHg 88%
    07:00 -4°C° 0.1 mm 4 mps 744 mmHg 89%
    08:00 -4°C° 0.1 mm 4 mps 744 mmHg 89%
    09:00 -3°C° 0.1 mm 4 mps 744 mmHg 89%
    10:00 -3°C° 0.1 mm 4 mps 744 mmHg 88%
    11:00 -2°C° 0.1 mm 4 mps 744 mmHg 87%
    12:00 -2°C° 0.1 mm 4 mps 743 mmHg 88%
    13:00 -2°C° 0.1 mm 4 mps 743 mmHg 88%
    14:00 0°C° 0.1 mm 3 mps 743 mmHg 89%
    15:00 0°C° 0.1 mm 3 mps 743 mmHg 90%
    16:00 0°C° 0.1 mm 3 mps 743 mmHg 91%
    17:00 -1°C° 0.1 mm 3 mps 743 mmHg 93%
    18:00 -1°C° 0.2 mm 3 mps 743 mmHg 93%
    19:00 0°C° 0.2 mm 3 mps 743 mmHg 94%
    20:00 +1°C° 0.2 mm 2 mps 743 mmHg 94%
    21:00 +1°C° 0.3 mm 2 mps 743 mmHg 94%
    22:00 +1°C° 0.3 mm 2 mps 743 mmHg 95%
    23:00 +1°C° 0.3 mm 2 mps 743 mmHg 95%

    17 December, Monday

    Time Temperature Precipitation Wind Pressure Humidity
    00:00 +1°C° 0.2 mm 2 mps 743 mmHg 95%
    01:00 -1°C° 0.2 mm 2 mps 743 mmHg 95%
    02:00 -1°C° 0.2 mm 2 mps 743 mmHg 95%
    03:00 -1°C° 0.1 mm 2 mps 743 mmHg 95%
    04:00 -1°C° 0.1 mm 2 mps 743 mmHg 95%
    05:00 -1°C° 0.1 mm 2 mps 743 mmHg 95%
    06:00 +1°C° 0 mm 1 mps 743 mmHg 95%
    07:00 +1°C° 0 mm 1 mps 743 mmHg 95%
    08:00 +1°C° 0 mm 1 mps 743 mmHg 95%
    09:00 +2°C° 0 mm 1 mps 743 mmHg 95%
    10:00 +2°C° 0 mm 1 mps 744 mmHg 95%
    11:00 +2°C° 0 mm 1 mps 744 mmHg 95%
    12:00 +2°C° 0.2 mm 1 mps 744 mmHg 96%
    13:00 +3°C° 0.2 mm 1 mps 743 mmHg 96%
    14:00 +3°C° 0.2 mm 1 mps 743 mmHg 97%
    15:00 +2°C° 0.2 mm 1 mps 743 mmHg 97%
    16:00 +2°C° 0.2 mm 1 mps 744 mmHg 97%
    17:00 +2°C° 0.2 mm 1 mps 744 mmHg 97%
    18:00 +1°C° 0.2 mm 1 mps 744 mmHg 97%
    19:00 +1°C° 0.2 mm 1 mps 744 mmHg 97%
    20:00 +1°C° 0.2 mm 1 mps 745 mmHg 97%
    21:00 +1°C° 0.2 mm 1 mps 745 mmHg 97%
    22:00 +1°C° 0.2 mm 1 mps 745 mmHg 97%
    23:00 +1°C° 0.2 mm 1 mps 745 mmHg 97%

    18 December, Tuesday

    Time Temperature Precipitation Wind Pressure Humidity
    00:00 -1°C° 0.1 mm 2 mps 746 mmHg 96%
    01:00 -2°C° 0.1 mm 2 mps 746 mmHg 96%
    02:00 -2°C° 0.1 mm 2 mps 746 mmHg 95%
    03:00 -2°C° 0.1 mm 2 mps 746 mmHg 94%
    04:00 -2°C° 0.1 mm 2 mps 746 mmHg 94%
    05:00 -3°C° 0.1 mm 2 mps 747 mmHg 93%
    06:00 -3°C° 0 mm 2 mps 747 mmHg 93%
    07:00 -3°C° 0 mm 2 mps 747 mmHg 93%
    08:00 -4°C° 0 mm 2 mps 747 mmHg 93%
    09:00 -3°C° 0 mm 2 mps 748 mmHg 92%
    10:00 -2°C° 0 mm 2 mps 748 mmHg 91%
    11:00 -2°C° 0 mm 2 mps 748 mmHg 90%
    12:00 -1°C° 0 mm 2 mps 748 mmHg 90%
    13:00 -1°C° 0 mm 2 mps 748 mmHg 90%
    14:00 +1°C° 0 mm 2 mps 748 mmHg 91%
    15:00 -1°C° 0 mm 2 mps 748 mmHg 92%
    16:00 +1°C° 0 mm 1 mps 748 mmHg 93%
    17:00 0°C° 0 mm 1 mps 748 mmHg 94%
    18:00 0°C° 0 mm 1 mps 748 mmHg 94%
    19:00 0°C° 0 mm 1 mps 748 mmHg 94%
    20:00 0°C° 0 mm 1 mps 748 mmHg 93%
    21:00 -1°C° 0 mm 1 mps 748 mmHg 93%
    22:00 -1°C° 0 mm 1 mps 748 mmHg 92%
    23:00 -1°C° 0 mm 1 mps 748 mmHg 92%

    19 December, Wednesday

    Time Temperature Precipitation Wind Pressure Humidity
    00:00 -2°C° 0 mm 1 mps 748 mmHg 92%
    01:00 -2°C° 0 mm 1 mps 748 mmHg 91%
    02:00 -2°C° 0 mm 1 mps 748 mmHg 91%
    03:00 -3°C° 0 mm 1 mps 748 mmHg 91%
    04:00 -3°C° 0 mm 1 mps 748 mmHg 90%
    05:00 -3°C° 0 mm 1 mps 748 mmHg 90%
    06:00 -5°C° 0 mm 2 mps 748 mmHg 90%
    07:00 -5°C° 0 mm 2 mps 748 mmHg 90%
    08:00 -5°C° 0 mm 2 mps 748 mmHg 91%
    09:00 -4°C° 0 mm 2 mps 748 mmHg 89%
    10:00 -3°C° 0 mm 2 mps 748 mmHg 88%
    11:00 -2°C° 0 mm 3 mps 747 mmHg 87%
    12:00 -2°C° 0 mm 3 mps 747 mmHg 86%
    13:00 -1°C° 0 mm 3 mps 747 mmHg 86%
    14:00 -1°C° 0 mm 3 mps 746 mmHg 86%
    15:00 -2°C° 0 mm 3 mps 746 mmHg 87%
    16:00 -4°C° 0 mm 3 mps 746 mmHg 89%
    17:00 -4°C° 0 mm 3 mps 746 mmHg 90%
    18:00 -5°C° 0 mm 3 mps 745 mmHg 90%
    19:00 -5°C° 0 mm 3 mps 745 mmHg 90%
    20:00 -5°C° 0 mm 3 mps 745 mmHg 90%
    21:00 -5°C° 0 mm 3 mps 745 mmHg 89%
    22:00 -5°C° 0 mm 3 mps 745 mmHg 89%
    23:00 -5°C° 0 mm 3 mps 745 mmHg 88%
    Show more